Theta_e
332 332 330 329 330 331 334 337 337 338 339 339 339 338 337 336 333 332 330 331 331 333 336 336 335 334 332 331 329 329 328 329 330 330 328 329 329 327 326 325 323 326 330 328 326 325 324 324 323 322 325 327 329 330 330 331 333 331 329 328 327 326
331 332 331 330 329 329 331 335 336 338 338 338 339 338 337 335 335 334 332 332 331 334 336 334 335 333 332 332 330 330 328 327 330 329 326 326 327 326 326 325 324 327 330 328 324 324 324 323 322 322 325 328 329 329 330 331 332 331 329 328 327 326
332 332 332 332 330 328 329 330 332 335 336 336 337 337 337 336 336 336 334 334 333 335 334 332 333 334 333 333 331 331 329 327 328 327 325 323 323 324 325 325 327 328 328 327 324 324 323 322 322 321 325 328 328 328 330 331 331 330 329 328 326 326
334 334 334 333 332 330 329 327 327 330 333 335 335 337 338 337 337 338 336 335 335 335 334 331 332 333 334 334 333 332 330 328 327 325 323 322 321 322 323 324 326 326 327 327 325 324 323 322 321 321 324 327 328 329 329 330 330 330 329 327 326 326
335 335 335 334 334 333 331 329 327 326 328 329 332 335 335 336 338 339 338 337 336 335 334 332 331 332 333 334 336 333 331 330 327 323 321 320 322 322 323 324 325 325 325 326 325 324 322 321 321 321 323 326 328 329 329 330 329 330 328 326 327 326
336 336 336 335 335 335 333 330 328 326 326 326 328 331 330 333 336 338 338 337 336 334 333 334 331 332 332 333 335 335 332 330 325 321 319 320 322 323 323 323 324 323 323 323 322 322 320 320 320 320 323 324 328 329 328 329 329 329 327 326 327 326
337 337 337 337 336 337 334 331 330 329 327 327 328 328 328 331 335 336 336 336 336 334 333 334 333 332 334 335 335 335 333 328 323 319 317 320 322 323 323 323 323 322 323 323 322 322 323 322 320 319 321 323 327 329 328 328 328 328 327 327 328 327
337 337 337 337 336 336 334 333 334 334 331 329 328 328 329 331 335 336 336 336 336 334 333 335 335 334 335 335 335 335 332 327 324 319 316 319 322 322 323 322 322 323 324 325 326 327 327 326 324 319 318 320 325 330 330 328 328 327 328 328 328 328
337 337 337 337 337 336 334 335 335 335 335 334 331 330 332 334 335 335 335 336 335 334 334 335 335 334 334 334 334 335 332 327 324 319 316 319 320 320 320 320 320 322 323 325 328 329 329 329 327 322 320 322 327 331 331 330 329 327 328 329 328 329
334 336 336 336 337 337 336 336 336 335 336 336 334 333 335 335 336 335 335 334 334 334 334 334 334 334 335 335 335 336 334 329 326 321 318 317 319 319 319 320 321 323 324 326 327 328 328 328 328 326 325 326 329 331 331 331 330 327 328 329 329 329
331 333 334 334 335 335 333 332 333 334 336 336 335 336 336 335 335 335 335 334 334 334 334 334 334 334 335 336 335 336 335 331 329 325 321 318 318 319 320 321 322 323 324 325 325 326 327 327 327 328 327 327 328 330 330 330 330 328 328 329 329 329
330 330 330 330 330 328 326 324 325 327 333 336 336 336 335 335 335 335 334 334 335 334 334 334 334 334 334 336 336 336 335 332 330 328 326 322 320 319 319 320 322 322 323 323 324 325 327 328 328 328 328 328 328 330 330 329 329 328 329 329 329 329
328 327 326 326 326 325 323 322 320 321 327 330 331 334 335 334 333 334 334 334 335 335 334 334 335 334 334 336 336 335 336 334 331 330 329 327 324 322 321 322 324 325 325 326 326 328 330 330 329 329 329 329 328 329 329 329 329 328 329 329 329 329
326 325 324 323 323 324 322 323 322 321 323 323 322 326 330 332 331 332 334 334 334 333 334 333 333 333 334 335 335 335 336 335 333 330 330 329 328 326 325 325 328 330 331 330 330 331 332 332 331 330 329 329 329 329 329 328 328 328 328 328 329 329
324 323 322 322 322 322 322 322 323 323 323 323 322 321 322 326 329 330 330 330 329 330 332 332 332 333 334 335 335 335 336 336 334 332 331 331 330 330 329 328 329 330 331 331 331 331 331 331 332 331 329 329 330 330 329 328 328 329 328 328 328 329
321 322 321 320 321 320 319 320 322 323 323 323 323 321 320 321 324 325 323 323 325 326 328 329 331 333 333 334 334 334 335 335 334 334 333 333 332 331 330 330 330 330 330 330 331 331 331 331 332 333 330 329 330 331 330 329 328 328 328 328 328 328
320 321 320 319 319 317 317 318 319 320 322 322 320 319 321 321 321 322 322 322 322 322 324 326 330 333 333 334 334 334 334 334 334 335 334 334 334 333 332 332 331 331 329 329 332 333 332 333 333 333 331 329 330 330 330 330 329 329 328 329 328 328
319 318 317 317 316 315 316 317 316 317 319 320 317 317 321 322 323 324 324 324 323 322 323 325 329 333 334 334 333 333 334 334 333 334 334 334 334 333 334 333 333 333 328 327 331 333 333 334 332 331 330 328 329 330 330 330 329 329 329 329 328 328
318 317 316 315 313 313 316 316 314 314 315 316 317 319 322 322 323 325 324 325 326 325 325 326 328 331 332 332 331 329 331 333 333 332 333 334 335 334 334 334 333 332 327 326 331 334 334 333 332 331 330 328 329 330 330 330 330 329 329 328 328 328
317 316 315 312 312 314 316 315 313 313 314 316 317 319 321 323 324 324 323 324 325 326 326 326 327 327 328 328 327 324 325 329 328 327 329 330 331 332 333 333 333 330 327 326 330 334 334 333 332 332 331 330 330 330 329 330 329 329 329 328 327 328
316 315 313 312 314 316 316 314 314 313 314 315 315 315 317 321 321 320 320 322 323 323 325 325 326 326 325 325 326 325 323 323 322 322 327 329 328 329 329 330 331 331 331 330 331 333 333 332 331 330 331 331 331 330 329 329 329 328 328 327 327 327
314 314 313 313 315 316 316 314 313 312 312 311 310 309 311 314 315 314 316 320 320 319 319 319 320 321 322 321 323 325 324 324 324 324 329 330 330 330 329 329 329 330 331 331 331 332 333 332 329 328 330 331 332 332 330 329 330 329 327 327 327 327
311 312 313 314 315 316 316 315 313 312 310 308 307 307 308 312 313 312 314 317 317 317 315 314 316 318 319 319 321 323 324 324 326 326 328 329 329 330 329 330 330 330 330 330 331 331 331 331 329 327 328 331 334 333 332 331 329 330 329 328 327 327
310 312 314 315 316 317 317 317 316 313 310 307 307 308 310 312 315 315 314 315 317 316 314 313 316 319 319 319 320 321 322 323 324 324 325 326 327 326 326 327 329 330 331 331 331 331 331 331 330 328 328 331 331 332 335 333 329 330 331 329 328 327
312 313 315 316 317 318 318 318 317 316 313 309 308 309 310 312 314 316 314 315 316 314 313 314 316 318 318 319 318 319 320 321 322 323 323 323 324 324 324 325 326 327 329 330 331 331 331 331 330 329 328 329 329 332 336 333 328 331 330 329 329 327
313 314 315 316 317 318 319 316 315 316 314 311 310 309 309 310 311 313 315 315 315 314 314 315 316 316 317 317 318 318 318 319 321 321 321 322 322 322 322 323 324 325 326 327 328 329 330 330 330 330 329 329 329 331 333 330 331 334 331 329 329 328
314 315 315 317 318 319 318 314 312 312 312 311 311 308 307 308 309 312 314 315 314 315 316 316 316 317 317 318 318 317 318 318 319 320 320 321 321 321 321 322 322 323 324 324 325 326 328 328 328 329 329 329 328 328 328 329 330 333 333 332 330 328
314 316 317 318 319 320 318 312 311 312 311 311 310 308 307 307 308 310 312 313 313 315 318 317 317 318 318 318 318 318 317 317 317 318 318 319 319 320 320 320 321 321 322 322 323 324 325 326 328 328 328 328 328 328 328 328 328 328 331 332 331 329
313 315 317 319 318 318 316 312 311 312 311 312 311 309 307 307 306 307 308 310 312 315 318 318 318 318 317 317 317 315 314 314 314 314 315 316 317 318 318 319 319 319 320 320 320 321 322 323 325 325 326 327 328 328 327 327 328 328 328 330 331 331
313 314 317 319 317 314 313 311 312 311 311 312 312 310 309 308 307 306 307 309 310 314 316 318 318 318 317 316 313 308 307 308 309 310 310 312 313 314 315 316 316 316 317 317 318 318 319 320 321 321 322 323 324 326 327 327 328 329 329 329 330 330
313 314 316 318 315 312 312 312 311 310 310 311 312 311 309 309 308 306 307 308 309 312 315 316 317 317 316 313 308 305 305 305 306 306 307 307 307 308 310 311 311 312 313 314 314 315 316 317 318 318 319 319 321 322 324 325 327 328 328 328 328 329
315 315 316 317 314 313 312 312 311 311 311 312 313 311 308 308 308 307 306 306 308 311 313 315 315 315 313 311 308 306 306 306 306 306 306 306 306 307 307 307 307 308 310 311 312 313 313 314 315 316 317 317 318 319 320 322 324 325 326 327 328 328
316 315 316 316 314 313 313 312 312 311 312 313 314 313 310 308 308 307 306 306 307 308 311 312 313 312 312 311 311 310 309 308 308 308 307 306 307 307 306 306 305 306 307 309 310 311 312 313 313 313 314 315 316 317 317 318 320 322 324 326 327 327
316 316 317 317 315 315 314 314 314 313 313 314 315 314 312 310 310 309 308 307 307 307 308 309 310 310 311 312 312 312 311 310 310 310 308 306 306 306 305 306 306 306 307 308 308 309 309 310 311 311 312 312 313 314 315 316 317 319 321 324 326 327
317 317 317 317 316 316 315 315 315 314 313 315 316 315 314 312 311 311 310 309 308 307 308 308 309 310 311 312 312 313 312 311 311 310 308 306 306 305 305 306 307 307 307 307 307 308 308 308 308 309 310 310 311 311 312 313 314 315 317 319 322 324
318 318 318 318 317 317 316 316 315 314 314 314 314 314 314 313 311 311 312 311 309 308 308 308 310 312 312 313 313 313 312 311 311 311 308 306 305 306 306 306 305 305 306 306 307 307 307 307 307 307 308 308 309 309 310 311 312 312 313 314 316 319
319 319 319 318 318 317 317 316 315 315 315 315 314 314 313 312 312 312 312 312 310 309 308 309 311 312 312 313 313 312 312 312 312 311 308 306 306 307 306 305 304 304 304 305 305 305 305 305 305 305 306 306 307 307 307 308 309 310 311 312 312 314
Wind_Speed
6 7 7 7 8 10 10 10 10 10 11 12 13 13 13 12 11 11 10 8 7 8 9 10 10 10 10 9 8 9 9 8 9 8 7 7 7 8 9 10 12 14 14 11 10 12 13 11 9 8 6 4 6 8 9 12 12 10 9 7 5 5
6 7 8 7 8 9 10 11 10 10 11 11 11 12 13 12 12 12 11 9 8 9 9 10 11 11 10 9 8 9 9 9 10 8 7 8 8 8 9 11 12 14 15 13 11 11 13 12 10 9 7 5 6 9 9 12 12 10 8 7 5 5
8 8 8 7 8 8 9 10 11 10 10 11 11 12 12 12 13 13 13 11 11 10 9 8 9 10 9 9 9 9 9 9 10 9 8 8 9 10 10 12 14 15 15 14 12 11 12 13 11 10 9 6 7 11 11 11 11 9 8 6 5 5
9 9 8 8 9 8 8 9 10 10 10 10 10 10 10 11 14 14 14 13 12 11 10 8 7 7 9 10 10 9 10 10 10 9 9 9 10 11 11 13 14 15 15 15 13 11 11 12 12 11 10 7 7 11 12 11 11 9 8 6 5 5
10 9 9 9 8 8 8 9 9 10 10 10 9 9 10 10 13 14 14 14 12 11 10 8 6 7 9 12 12 11 11 11 10 9 9 10 11 12 13 14 15 15 15 15 14 12 11 11 12 12 12 9 7 10 13 11 10 9 8 6 5 4
11 9 8 8 8 8 9 9 10 10 10 10 10 10 10 9 10 12 12 12 12 11 9 8 7 8 10 13 14 13 12 11 10 9 9 10 11 12 13 14 15 15 14 14 13 11 10 10 11 12 13 11 8 9 12 11 10 9 8 7 5 3
12 10 9 9 9 9 10 10 10 11 10 11 11 10 10 8 8 8 8 11 11 10 9 8 7 8 9 13 15 14 12 11 10 9 8 9 10 12 13 14 14 14 13 12 11 10 9 8 9 10 13 13 10 8 10 11 10 10 9 7 6 3
12 11 10 10 10 10 11 11 11 10 10 11 12 11 10 8 7 6 5 8 9 9 9 8 8 9 9 12 15 15 14 12 10 9 8 8 9 10 12 13 13 12 11 10 10 9 7 6 6 8 12 14 12 9 9 10 10 11 10 8 7 5
13 12 12 12 12 11 11 11 10 10 11 11 12 11 10 8 8 7 6 7 8 9 10 9 9 10 10 11 15 17 15 13 11 10 9 9 8 9 10 12 13 11 11 10 9 8 6 5 5 6 11 14 13 10 9 10 10 11 11 10 9 7
14 13 13 13 12 11 10 10 10 10 11 11 12 12 11 9 8 7 6 7 9 10 11 11 10 10 11 11 13 17 16 14 13 11 11 10 10 10 10 11 12 11 11 10 9 7 6 6 6 7 10 13 13 10 10 10 10 11 12 12 11 9
14 14 13 12 10 10 9 8 9 10 10 10 11 12 11 10 9 8 7 8 9 10 12 12 10 9 11 12 14 17 17 16 15 13 12 12 11 11 11 12 12 11 11 11 10 8 8 9 9 9 11 13 13 11 11 12 11 11 12 13 12 10
14 14 13 12 10 9 8 6 5 6 8 8 10 11 10 9 9 9 8 8 9 10 11 11 11 10 10 12 15 18 18 18 17 15 13 12 13 12 13 13 13 12 12 12 12 12 11 12 11 12 13 14 14 13 13 13 13 12 12 14 14 12
15 14 14 12 11 10 8 6 5 6 6 5 6 8 9 8 7 7 8 9 10 11 11 11 11 10 10 11 14 17 18 18 18 16 14 13 13 13 14 14 13 13 13 14 14 13 12 13 13 13 14 15 16 14 14 14 14 13 13 15 15 14
15 15 13 12 11 9 8 7 7 8 8 7 5 5 7 7 6 6 7 8 9 9 9 10 11 10 9 10 13 16 18 19 18 17 16 15 14 14 13 13 14 13 13 14 15 15 14 15 15 15 16 18 18 16 16 15 15 15 14 15 16 16
16 15 13 12 11 9 8 7 7 8 8 6 6 6 5 5 6 6 7 7 7 7 6 6 8 8 8 9 11 13 15 18 19 19 18 17 16 15 14 14 15 14 14 15 17 17 17 17 17 17 18 21 20 19 18 17 16 16 16 16 17 17
17 16 14 12 11 10 8 7 6 7 7 5 4 5 5 5 5 4 5 5 6 5 4 4 5 6 6 8 10 12 12 14 16 17 17 18 17 17 16 16 15 16 17 18 18 18 17 17 17 18 19 22 23 21 21 20 19 18 17 18 18 18
18 17 14 13 12 10 10 8 7 7 7 5 3 3 5 6 5 5 4 3 4 4 4 4 4 4 6 7 9 12 12 11 12 12 12 16 18 19 18 18 18 17 16 17 17 16 15 15 16 17 20 23 24 23 23 22 21 20 20 20 19 19
19 17 14 13 12 11 12 10 9 8 7 6 4 4 6 7 6 5 4 3 3 3 3 4 4 4 4 4 5 8 10 10 10 10 9 12 15 16 17 18 18 16 14 15 16 14 14 14 13 15 19 24 25 25 24 23 23 23 22 22 21 21
19 17 15 14 13 14 14 11 10 8 7 7 6 6 7 7 6 4 4 4 3 3 3 3 4 3 2 1 1 2 6 10 10 8 8 9 11 12 14 15 15 14 14 14 16 15 15 14 13 13 17 22 25 26 24 23 24 25 24 23 22 22
21 19 18 17 17 18 16 13 11 9 9 8 8 7 7 7 6 5 4 4 4 3 3 3 3 2 1 1 2 3 3 8 7 4 3 5 7 8 10 12 12 13 14 15 16 17 17 15 14 12 14 19 22 24 23 22 23 24 25 25 24 23
23 21 21 20 20 20 19 16 13 11 10 9 8 7 7 7 6 5 4 4 4 4 3 3 3 2 0 1 2 3 2 5 3 1 0 1 2 3 5 8 10 12 14 15 17 15 13 13 12 11 11 14 18 21 23 23 23 24 25 26 25 25
25 24 23 22 22 21 20 17 15 13 11 9 7 6 6 6 4 3 4 4 4 3 3 3 3 3 3 1 2 4 3 1 1 2 2 2 2 1 0 3 7 9 11 12 14 14 11 8 7 8 9 7 9 15 19 22 24 24 25 26 27 27
26 26 26 24 22 20 19 17 15 14 12 10 8 6 6 5 3 3 3 4 3 1 1 1 2 4 5 4 4 5 5 4 3 2 2 3 5 5 4 3 2 3 6 8 11 13 12 10 8 7 6 4 2 4 9 14 19 23 25 26 27 28
28 28 28 25 21 19 18 16 14 14 13 11 9 8 6 5 4 3 3 3 2 1 0 2 4 6 6 5 4 4 4 3 4 4 3 4 5 6 6 5 5 5 4 4 7 9 10 11 11 8 4 3 1 1 3 5 9 19 24 25 26 27
31 30 29 26 22 20 18 16 16 15 13 11 10 9 7 5 5 4 4 3 2 0 1 4 5 5 5 4 3 2 2 2 2 3 4 5 6 6 7 7 5 5 5 3 4 5 6 8 11 14 10 3 1 1 3 1 2 9 16 21 25 26
32 31 29 26 23 21 19 19 20 19 17 14 12 10 6 5 5 4 4 3 2 2 2 4 4 3 3 3 3 2 1 2 2 2 3 4 5 5 6 7 7 6 6 6 5 4 5 6 5 12 14 9 5 2 3 2 1 3 6 12 19 23
33 32 29 27 25 23 21 22 23 22 19 17 15 12 7 5 5 4 4 3 3 3 4 4 4 3 3 2 3 2 2 2 3 3 3 3 5 6 6 6 7 7 7 6 5 5 6 8 6 5 8 9 11 10 6 3 1 1 4 5 10 15
33 32 29 27 26 24 24 26 25 22 19 17 15 12 9 8 6 5 5 4 4 4 4 5 5 3 2 2 2 1 1 2 2 2 2 3 4 5 5 5 5 6 6 7 7 6 6 7 7 7 9 8 7 10 9 8 7 5 2 3 6 10
32 31 30 27 26 26 27 28 25 22 19 17 15 13 11 10 8 7 6 5 5 5 5 5 4 3 2 1 1 1 2 3 3 4 4 4 5 4 4 5 5 5 6 6 7 6 6 7 6 7 8 8 8 9 9 9 10 9 6 5 4 5
32 31 30 27 27 28 29 28 25 22 19 18 17 15 14 13 11 10 8 7 6 6 5 5 4 2 1 0 2 4 5 6 6 6 6 6 6 6 6 6 6 6 6 6 6 6 6 6 7 7 7 7 8 9 8 6 6 8 7 7 5 5
33 32 30 28 30 31 30 29 26 22 20 19 19 18 17 16 15 13 11 9 7 6 6 5 4 3 2 0 3 4 6 7 7 8 8 8 8 8 8 7 7 7 7 7 7 6 6 6 6 6 7 8 8 8 8 6 7 10 8 6 6 5
33 33 31 31 32 33 31 29 26 23 21 21 21 21 20 19 17 16 13 11 9 8 7 6 5 5 3 2 2 2 4 5 7 9 10 10 9 8 8 8 9 9 8 8 8 8 7 7 7 8 7 8 8 8 9 10 11 12 11 11 11 7
35 35 34 33 34 34 32 30 27 24 23 22 22 22 22 21 18 16 15 12 11 10 9 8 7 6 4 3 2 1 4 5 7 9 11 11 10 9 10 10 11 11 11 11 10 10 9 8 8 9 8 8 8 8 9 11 11 12 12 14 14 9
37 36 36 35 36 35 33 32 28 26 25 24 24 24 23 22 20 18 16 14 12 11 10 9 8 6 4 3 2 3 4 6 7 8 10 11 10 10 11 12 12 13 13 13 13 12 11 10 9 9 9 9 9 9 10 10 11 11 11 13 14 11
37 37 38 37 37 36 35 33 30 28 27 26 25 25 25 24 22 20 18 16 14 12 11 9 8 7 6 5 5 5 5 6 7 8 10 10 10 10 11 12 12 12 13 13 13 13 13 12 12 11 11 10 10 10 10 10 11 11 11 11 13 15
38 39 39 39 39 38 36 35 32 30 29 28 27 26 26 26 24 22 19 17 15 13 11 10 9 9 8 7 7 7 6 7 7 8 10 10 10 11 11 12 14 14 13 13 13 14 14 14 13 13 13 12 12 12 12 12 12 12 12 12 13 15
36 36 38 39 39 39 38 36 34 32 30 30 29 28 28 27 25 23 21 19 17 15 13 11 11 10 10 9 8 8 7 7 7 8 9 10 11 11 12 14 15 15 14 14 14 14 14 14 14 15 15 15 15 15 15 14 15 14 14 15 14 14
Wind_Direction
156 153 154 157 158 161 162 164 166 170 179 185 184 180 180 183 183 177 175 174 177 189 190 187 184 187 184 175 176 168 163 170 170 160 150 153 159 164 165 166 169 173 176 172 170 173 177 179 182 169 144 134 142 156 174 178 185 183 171 164 153 152
167 165 166 166 165 167 168 170 173 177 180 187 188 183 186 188 187 183 181 180 187 199 198 192 189 187 184 179 183 175 167 168 169 167 163 163 168 173 171 170 170 171 174 175 176 176 178 183 185 173 153 145 149 152 166 177 184 185 177 169 158 156
160 164 173 173 172 177 178 178 182 186 185 188 194 194 196 196 194 191 187 188 194 201 199 195 194 192 190 185 184 180 174 167 169 178 176 171 174 181 179 174 172 171 174 176 176 174 174 181 184 176 162 151 151 153 160 173 182 188 185 176 165 164
155 157 168 176 182 186 186 190 191 191 191 193 201 200 203 205 199 196 195 198 199 201 198 192 200 202 199 196 186 183 183 172 172 182 181 174 173 180 183 178 175 175 179 179 179 176 170 176 182 177 167 163 155 154 160 171 182 188 189 184 173 171
160 158 164 176 185 193 195 200 200 195 195 198 204 201 203 207 203 201 201 205 201 195 196 186 192 200 198 201 192 184 184 176 176 183 183 177 172 178 182 179 178 180 184 185 184 182 173 173 182 180 172 172 166 159 163 172 183 191 192 190 183 175
168 169 172 183 189 201 207 207 205 200 199 202 208 206 205 206 211 212 203 205 196 184 192 185 193 206 198 198 193 186 184 181 184 189 185 180 174 177 181 179 179 182 188 191 187 183 174 171 180 184 180 178 175 167 168 173 183 193 197 196 192 184
175 179 183 195 202 211 213 210 209 206 206 208 212 213 214 211 218 226 206 198 190 185 197 193 206 222 203 192 189 188 188 187 190 191 185 183 178 174 178 177 179 186 189 188 183 178 174 170 174 182 185 185 184 175 173 177 183 192 202 203 199 200
180 186 190 199 209 216 213 210 210 209 211 215 219 219 218 213 213 232 219 193 193 205 216 207 214 227 214 200 193 188 188 191 192 190 185 184 180 173 176 178 181 189 189 184 183 183 184 182 178 179 182 187 191 189 186 190 193 196 205 209 205 209
186 192 195 199 209 214 212 213 218 220 217 215 221 223 221 219 213 218 217 206 211 225 230 222 222 230 228 218 200 188 188 193 193 189 185 183 181 176 176 178 182 189 191 189 191 193 202 209 206 188 174 179 190 199 206 208 207 204 206 211 212 214
180 186 191 196 204 209 211 218 227 232 227 219 222 226 223 222 220 216 213 217 223 230 237 234 233 232 230 226 202 190 192 197 195 191 189 183 180 182 182 181 182 188 196 202 205 211 228 240 240 221 191 186 192 199 213 220 217 210 208 212 216 218
165 169 176 182 190 195 200 208 218 225 227 224 223 226 225 225 225 221 217 222 227 232 241 239 233 228 224 221 202 196 200 201 201 198 194 190 186 189 192 193 194 198 210 220 228 237 250 259 258 246 226 211 204 200 211 223 222 215 212 214 218 222
158 158 161 162 163 163 160 163 177 200 212 214 216 221 222 222 221 219 216 218 225 233 241 241 236 231 226 218 203 202 206 205 207 205 200 199 198 199 201 206 209 214 226 236 245 251 257 265 263 251 239 226 216 208 211 222 223 219 218 216 219 224
159 157 157 153 148 145 144 143 136 138 153 169 194 211 209 200 200 205 207 211 222 234 240 242 242 235 226 223 212 208 209 208 210 213 210 209 210 210 212 216 218 224 234 243 253 258 263 268 263 251 239 228 220 213 212 221 226 224 226 222 222 226
162 162 159 153 150 150 151 151 146 135 126 122 131 173 193 186 175 175 180 190 209 226 235 240 243 233 219 224 222 215 214 211 212 218 220 218 218 219 222 229 230 234 242 250 257 260 266 270 267 256 239 227 221 216 215 221 227 229 233 231 228 231
164 167 161 157 157 157 160 158 156 151 140 125 115 124 150 163 160 158 164 172 187 204 214 226 236 233 224 222 222 222 220 218 218 223 226 224 225 225 226 236 239 244 250 256 261 264 267 268 267 260 241 227 221 218 220 223 228 233 238 239 236 237
164 166 163 161 159 156 159 157 157 162 160 143 118 116 117 129 144 147 160 176 187 196 198 211 234 238 235 222 219 225 222 221 223 226 231 230 230 231 229 235 241 248 256 262 267 269 269 267 266 263 246 230 223 220 222 225 229 233 238 241 242 242
167 167 165 161 160 155 149 143 134 143 156 152 121 122 127 124 124 121 126 153 185 203 209 212 225 238 246 237 228 230 225 221 220 220 233 237 233 233 232 236 241 246 257 269 275 276 273 266 267 265 248 232 226 223 224 227 230 234 236 239 243 245
171 172 169 164 163 157 148 138 124 124 138 147 133 131 141 137 130 126 126 134 171 189 194 211 220 221 235 238 225 231 227 220 216 209 223 237 236 234 233 237 242 241 248 268 277 276 269 263 265 264 246 233 229 226 226 230 233 236 237 239 242 244
175 174 170 166 162 154 148 139 130 131 140 142 132 130 142 147 145 145 138 131 149 168 174 201 222 221 217 199 183 242 230 218 213 209 216 225 229 229 227 231 239 240 247 266 275 273 272 266 264 263 246 235 231 227 227 230 233 236 238 240 242 243
177 173 168 164 157 152 149 145 142 142 141 137 133 136 149 159 163 164 156 152 156 158 162 174 190 217 268 311 358 358 277 227 208 198 227 227 225 226 224 227 235 241 247 259 267 274 281 274 264 264 251 239 234 228 226 229 233 236 238 240 242 244
178 174 170 164 158 155 153 151 151 149 144 141 143 151 163 172 179 187 190 189 185 174 167 164 158 159 156 4 33 39 318 266 236 169 132 161 213 230 231 235 237 240 243 249 258 268 279 277 269 270 256 240 237 233 228 229 232 235 238 241 242 243
177 177 174 169 164 161 160 158 157 154 150 143 140 144 151 156 163 177 184 186 192 195 188 177 164 161 167 155 94 97 93 310 241 195 182 130 101 109 223 256 247 249 253 256 261 257 253 258 254 260 265 250 243 242 235 232 235 237 239 240 242 244
175 176 176 174 171 169 167 167 164 157 150 142 139 140 141 142 135 134 154 165 172 186 206 184 153 147 150 148 132 113 101 98 114 124 126 109 94 90 78 42 358 304 284 274 275 266 255 250 234 238 271 279 246 242 243 241 241 243 243 242 242 243
173 173 176 178 178 177 176 176 176 168 156 148 150 153 155 165 174 169 163 168 177 200 276 146 134 130 132 133 132 126 108 100 93 84 79 83 82 80 76 59 32 19 360 304 292 285 272 264 246 227 242 274 233 171 244 251 247 247 247 245 244 244
174 174 177 180 182 186 185 185 185 177 165 159 160 164 170 181 192 197 189 185 176 78 114 148 137 129 134 137 135 141 136 127 104 78 68 70 75 73 72 70 51 37 39 23 337 315 298 280 250 233 228 224 119 196 242 257 284 256 248 245 246 248
178 177 179 183 188 193 193 187 183 179 174 171 173 176 177 179 189 198 196 190 145 92 98 150 159 150 145 148 149 152 149 138 132 102 80 73 78 70 62 65 60 50 49 42 23 6 352 341 282 248 246 240 232 266 312 329 328 287 270 256 252 252
182 181 182 187 193 199 196 187 184 183 182 182 183 181 177 177 185 200 206 195 158 120 102 130 156 154 137 140 144 140 127 121 117 105 92 81 77 70 62 59 55 52 51 43 31 29 19 11 7 326 298 275 258 265 290 319 316 332 325 291 270 264
186 185 186 190 197 202 197 188 187 188 188 191 192 183 178 181 186 202 212 196 172 159 136 134 148 153 142 141 146 134 129 133 122 101 86 75 70 66 62 57 50 47 46 41 34 30 25 19 14 2 357 348 306 285 282 286 282 277 289 304 300 289
191 189 189 194 200 201 195 190 189 192 192 195 195 186 182 186 190 197 202 189 175 171 166 157 156 164 167 149 111 103 114 123 112 91 80 75 67 56 45 38 32 29 27 33 35 32 28 22 16 6 2 360 347 332 320 306 291 272 252 257 281 288
194 193 192 196 198 195 193 191 192 194 196 196 193 189 189 192 196 196 193 187 179 172 173 176 175 177 196 95 76 87 90 91 86 74 66 58 49 39 31 25 19 15 11 13 17 22 26 20 14 16 13 8 356 344 338 329 310 293 268 254 259 267
197 196 195 197 196 193 193 195 195 196 199 198 195 194 194 195 198 197 192 187 183 179 178 186 195 201 224 105 91 84 74 67 57 46 39 31 23 18 15 10 4 360 359 2 2 3 8 8 5 5 10 13 7 356 343 328 318 314 298 273 275 274
199 199 198 197 197 197 197 198 199 199 201 200 200 201 200 200 201 199 194 188 186 186 186 188 198 208 212 184 143 85 48 35 26 22 17 14 15 16 12 5 359 354 352 353 356 356 359 1 2 360 1 1 356 355 349 340 333 322 312 301 296 291
201 201 199 198 199 201 202 201 201 202 202 201 203 206 207 208 207 204 198 195 194 193 193 194 196 204 213 201 191 356 5 3 4 4 3 6 11 15 12 7 4 360 356 353 351 352 353 356 359 358 355 349 343 347 347 346 344 333 323 312 300 289
201 202 200 199 202 205 206 205 203 203 203 202 205 209 212 215 214 210 207 207 209 207 204 205 200 202 219 228 248 298 326 338 345 347 350 358 5 8 6 4 3 359 355 352 348 346 344 342 343 343 343 339 336 339 341 344 346 342 337 321 303 296
201 202 202 201 203 205 208 208 206 205 205 205 207 210 214 219 220 215 213 213 216 216 216 216 211 212 225 233 246 268 292 312 321 327 338 349 355 358 359 358 357 354 349 345 343 343 342 340 336 333 334 334 332 331 333 336 339 341 342 335 321 311
202 203 203 203 204 206 209 210 208 207 206 206 208 210 213 218 221 219 217 218 219 220 222 222 218 223 232 235 240 253 271 291 302 313 329 339 344 347 351 352 351 349 348 345 342 340 339 338 336 332 329 326 325 325 325 325 325 327 329 331 333 326
203 204 205 205 205 207 209 210 210 209 208 208 208 210 212 215 219 219 219 221 222 220 221 222 222 227 234 236 239 248 263 279 292 309 326 333 335 338 342 344 345 347 349 347 346 344 341 339 337 334 329 325 322 320 318 316 313 314 317 317 321 326